[[{"header":{"parameterUnit":"m.s-1","parameterCategory":1,"la1":30.2992,"la2":30.254,"lo1":-89.0895,"lo2":-89.0443,"dy":0.0025,"dx":0.0025,"nx":19,"ny":19,"refTime":"2026-04-30T21:00:00:Z","depth":0,"parameterNumber":2,"parameterNumberName":"U-component_of_WINDS"},"data":[0,0,0,-4.6738,-4.674,-4.685,-4.6851,-4.7017,-4.7018,0,0,0,0,0,0,0,0,0,0,0,-4.6721,-4.6723,-4.6737,-4.6741,-4.685,-4.6851,-4.7016,-4.7018,0,0,0,0,0,0,0,0,0,0,0,-4.672,-4.6722,-4.6724,-4.6741,-4.685,-4.6851,-4.7016,-4.6924,0,0,0,0,0,0,0,0,0,0,-4.6813,-4.6813,-4.6722,-4.6724,-4.6742,-4.685,-4.6851,-4.6919,-4.693,-4.6978,0,-4.7025,0,-4.7025,-4.7031,-4.7032,0,0,0,-4.6729,-4.6805,-4.682,-4.6725,-4.6743,-4.685,-4.6797,-4.6925,-4.6937,-4.6992,-4.7028,-4.7033,-4.7027,-4.7032,-4.7033,-4.7352,-4.7354,0,0,-4.6723,-4.6749,-4.6811,-4.6828,-4.6813,-4.6794,-4.6801,-4.6932,-4.6972,-4.7028,-4.7036,-4.703,-4.7034,-4.7035,-4.735,-4.7352,0,0,0,-4.6713,-4.6746,-4.6757,-4.6822,-4.684,-4.6798,-4.6806,-4.6966,-4.6967,-4.7038,-4.7032,-4.7035,-4.7037,-4.7348,-4.7351,-4.7478,0,0,0,-4.6709,-4.674,-4.6755,-4.6772,-4.6838,-4.6904,-4.6838,-4.6958,-4.6972,-4.7031,-4.7035,-4.7039,-4.7345,-4.7349,-4.747,-4.7535,0,0,0,-4.6709,-4.674,-4.6761,-4.6774,-4.6822,-4.6902,-4.691,-4.6961,-4.697,-4.7032,-4.704,-4.7344,-4.7349,-4.7462,-4.7522,-4.7627,0,0,0,-4.6716,-4.6873,-4.6764,-4.6937,-4.6821,-4.6979,-4.6909,-4.7025,-4.7094,-4.7036,-4.7346,-4.735,-4.746,-4.7515,-4.7619,-4.7721,-4.7765,0,0,-4.6929,-4.6899,-4.6999,-4.6904,-4.7089,-4.696,-4.7163,-4.7201,-4.7183,-4.7296,-4.7304,-4.7473,-4.7521,-4.7625,-4.8003,-4.8039,0,0,0,-4.7076,-4.7148,-4.7191,-4.7258,-4.729,-4.7323,-4.7327,-4.7341,-4.7436,-4.7247,-4.7537,-4.7565,-4.7625,-4.7673,-4.7703,-4.7753,-4.7373,-4.7373,-4.7372,-4.7417,-4.7384,-4.7547,-4.7528,-4.7594,-4.7595,-4.7646,-4.7664,-4.7612,-4.7682,-4.7716,-4.7949,-4.8006,-4.8028,-4.8081,-4.7765,-4.7766,-4.7766,-4.7767,-4.7727,-4.7825,-4.7751,-4.7883,-4.7848,-4.7958,-4.7966,-4.7925,-4.8023,-4.7921,-4.7972,-4.7865,-4.8068,-4.8113,-4.7776,-4.7774,-4.7773,-4.7772,-4.7772,-4.7948,-4.7989,-4.8003,-4.8096,-4.8171,-4.8145,-4.8243,-4.8206,-4.8173,-4.8223,-4.8256,-4.8254,-4.8248,-4.8241,-4.8242,-4.8243,-4.8244,-4.8244,-4.8245,-4.8173,-4.8184,-4.8271,-4.8318,-4.8356,-4.8401,-4.8404,-4.844,-4.8471,-4.8437,-4.8437,-4.8379,-4.8094,-4.8024,-4.8257,-4.8255,-4.8253,-4.8252,-4.8251,-4.8503,-4.8422,-4.8556,-4.8594,-4.8646,-4.8724,-4.8675,-4.8752,-4.8777,-4.8826,-4.8757,-4.8551,-4.8518,-4.8494,-4.8436,-4.8762,-4.8762,-4.8762,-4.8762,-4.8691,-4.867,-4.8799,-4.8862,-4.892,-4.8889,-4.9042,-4.9045,-4.9036,-4.9049,-4.8996,-4.8915,-4.8892,-4.8873,-4.8841,-4.8786,-4.9194,-4.9195,-4.9195,-4.8892,-4.8876,-4.9013,-4.9002,-4.904,-4.9073,-4.9216,-4.9291,-4.9264,-4.9212,-4.9059,-4.9041,-4.891,-4.8869,-4.8816,-4.8766,-4.8665,0,0]},{"header":{"parameterUnit":"m.s-1","parameterCategory":1,"la1":30.2992,"la2":30.254,"lo1":-89.0895,"lo2":-89.0443,"dy":0.0025,"dx":0.0025,"nx":19,"ny":19,"refTime":"2026-04-30T21:00:00:Z","depth":0,"parameterNumber":3,"parameterNumberName":"V-component_of_WINDS"},"data":[0,0,0,-5.5132,-5.5133,-5.5188,-5.5188,-5.5286,-5.5287,0,0,0,0,0,0,0,0,0,0,0,-5.5134,-5.5135,-5.5131,-5.5133,-5.5188,-5.5188,-5.5286,-5.5287,0,0,0,0,0,0,0,0,0,0,0,-5.5133,-5.5135,-5.5136,-5.5134,-5.5188,-5.5188,-5.5285,-5.5234,0,0,0,0,0,0,0,0,0,0,-5.5176,-5.5196,-5.5134,-5.5136,-5.5134,-5.5188,-5.5188,-5.5231,-5.5237,-5.5274,0,-5.5312,0,-5.5301,-5.5295,-5.5296,0,0,0,-5.512,-5.5191,-5.5189,-5.5137,-5.5135,-5.5188,-5.5159,-5.5234,-5.5241,-5.5282,-5.5313,-5.5316,-5.5303,-5.5296,-5.5297,-5.5555,-5.5557,0,0,-5.5117,-5.5153,-5.5185,-5.5195,-5.5189,-5.5158,-5.5161,-5.5238,-5.5274,-5.5313,-5.5317,-5.5304,-5.5297,-5.5298,-5.5554,-5.5556,0,0,0,-5.5117,-5.5152,-5.5147,-5.5192,-5.5199,-5.516,-5.5164,-5.527,-5.5266,-5.5318,-5.5306,-5.5298,-5.5299,-5.5552,-5.5554,-5.5683,0,0,0,-5.5115,-5.5152,-5.5147,-5.517,-5.5199,-5.5236,-5.5195,-5.526,-5.5268,-5.5305,-5.5298,-5.5301,-5.5549,-5.5553,-5.5675,-5.5738,0,0,0,-5.5124,-5.5153,-5.5167,-5.5172,-5.5196,-5.5234,-5.5233,-5.5261,-5.5261,-5.5296,-5.5301,-5.5548,-5.5552,-5.5668,-5.5726,-5.5817,0,0,0,-5.5144,-5.528,-5.517,-5.5316,-5.5196,-5.5313,-5.5232,-5.5317,-5.5362,-5.5299,-5.555,-5.5554,-5.5665,-5.5718,-5.581,-5.5902,-5.5943,0,0,-5.5336,-5.5304,-5.5387,-5.529,-5.5436,-5.5301,-5.5465,-5.5471,-5.544,-5.5519,-5.5524,-5.5677,-5.5725,-5.5816,-5.616,-5.6194,0,0,0,-5.546,-5.5521,-5.5551,-5.5597,-5.5605,-5.5617,-5.5594,-5.5596,-5.5661,-5.5488,-5.5733,-5.576,-5.5812,-5.5854,-5.5883,-5.5925,-5.5575,-5.5574,-5.5574,-5.5785,-5.5739,-5.5873,-5.5834,-5.5878,-5.5853,-5.5885,-5.5884,-5.5823,-5.5882,-5.5906,-5.612,-5.6171,-5.6192,-5.6237,-5.5949,-5.5949,-5.595,-5.595,-5.6063,-5.6142,-5.6058,-5.6158,-5.6108,-5.6192,-5.6173,-5.6127,-5.6197,-5.6099,-5.6142,-5.604,-5.623,-5.6267,-5.5959,-5.5958,-5.5957,-5.5956,-5.5955,-5.6272,-5.6301,-5.6302,-5.6362,-5.6413,-5.6367,-5.6439,-5.639,-5.6344,-5.6387,-5.6406,-5.6404,-5.6397,-5.6399,-5.64,-5.6401,-5.6401,-5.6402,-5.6402,-5.6489,-5.6485,-5.6552,-5.6572,-5.6594,-5.6617,-5.6593,-5.6613,-5.6623,-5.6582,-5.6581,-5.6516,-5.6257,-5.6194,-5.6414,-5.6412,-5.641,-5.6409,-5.6408,-5.6791,-5.6715,-5.6818,-5.6841,-5.6859,-5.6914,-5.6849,-5.6895,-5.6905,-5.6942,-5.6866,-5.6682,-5.6646,-5.6623,-5.6571,-5.6875,-5.6875,-5.6875,-5.6875,-5.6969,-5.6945,-5.704,-5.7079,-5.7111,-5.7063,-5.7181,-5.7163,-5.7132,-5.7135,-5.7084,-5.7009,-5.6988,-5.6964,-5.6934,-5.6884,-5.7262,-5.7262,-5.7263,-5.7152,-5.7129,-5.724,-5.7209,-5.7219,-5.7229,-5.7339,-5.7387,-5.7335,-5.7277,-5.7137,-5.7121,-5.6999,-5.6962,-5.6903,-5.6857,-5.6765,0,0]}]]